• In Russia
  • List of Countries
  • For 7 days
  • Water Temperature
  • Weather Map
  • Weather Widgets
  • user-avatar
    Login

    Hourly Weather Stawiska

    Today, 15 September, Sunday

    Time Temperature Precipitation Wind Pressure Humidity
    00:00 +7°C° 0 mm 1 mps 703 mmHg 81%
    01:00 +6°C° 0 mm 1 mps 702 mmHg 82%
    02:00 +6°C° 0 mm 1 mps 702 mmHg 82%
    03:00 +6°C° 0 mm 1 mps 702 mmHg 83%
    04:00 +6°C° 0 mm 1 mps 701 mmHg 83%
    05:00 +7°C° 0 mm 1 mps 701 mmHg 79%
    06:00 +8°C° 0 mm 1 mps 701 mmHg 76%
    07:00 +9°C° 0 mm 1 mps 701 mmHg 72%
    08:00 +10°C° 0 mm 2 mps 701 mmHg 64%
    09:00 +14°C° 0 mm 2 mps 701 mmHg 56%
    10:00 +16°C° 0 mm 2 mps 701 mmHg 49%
    11:00 +17°C° 0 mm 3 mps 701 mmHg 47%
    12:00 +18°C° 0 mm 3 mps 701 mmHg 46%
    13:00 +19°C° 0 mm 3 mps 701 mmHg 44%
    14:00 +19°C° 0 mm 3 mps 700 mmHg 49%
    15:00 +18°C° 0 mm 3 mps 699 mmHg 53%
    16:00 +18°C° 0 mm 3 mps 699 mmHg 57%
    17:00 +16°C° 0 mm 3 mps 698 mmHg 66%
    18:00 +14°C° 0 mm 2 mps 698 mmHg 75%
    19:00 +12°C° 0 mm 2 mps 698 mmHg 83%
    20:00 +10°C° 0 mm 2 mps 697 mmHg 84%
    21:00 +10°C° 0 mm 2 mps 697 mmHg 85%
    22:00 +10°C° 0 mm 2 mps 697 mmHg 86%
    23:00 +10°C° 0 mm 2 mps 696 mmHg 86%

    Tomorrow, 16 September, Monday

    Time Temperature Precipitation Wind Pressure Humidity
    00:00 +10°C° 0 mm 2 mps 696 mmHg 86%
    01:00 +10°C° 0 mm 2 mps 696 mmHg 85%
    02:00 +10°C° 0 mm 2 mps 696 mmHg 87%
    03:00 +10°C° 0 mm 1 mps 696 mmHg 88%
    04:00 +10°C° 0 mm 1 mps 696 mmHg 89%
    05:00 +11°C° 0 mm 1 mps 696 mmHg 87%
    06:00 +12°C° 0 mm 1 mps 696 mmHg 85%
    07:00 +13°C° 0 mm 1 mps 696 mmHg 82%
    08:00 +15°C° 0 mm 1 mps 696 mmHg 76%
    09:00 +16°C° 0 mm 1 mps 697 mmHg 69%
    10:00 +19°C° 0 mm 1 mps 697 mmHg 62%
    11:00 +19°C° 0 mm 2 mps 697 mmHg 57%
    12:00 +19°C° 0 mm 2 mps 696 mmHg 53%
    13:00 +20°C° 0 mm 3 mps 696 mmHg 48%
    14:00 +19°C° 0 mm 2 mps 696 mmHg 53%
    15:00 +20°C° 0 mm 1 mps 695 mmHg 57%
    16:00 +19°C° 0 mm 1 mps 695 mmHg 62%
    17:00 +18°C° 0 mm 1 mps 695 mmHg 66%
    18:00 +15°C° 0 mm 1 mps 694 mmHg 70%
    19:00 +14°C° 0 mm 1 mps 694 mmHg 73%
    20:00 +14°C° 0.1 mm 1 mps 693 mmHg 75%
    21:00 +13°C° 0.1 mm 2 mps 693 mmHg 78%
    22:00 +13°C° 0.1 mm 2 mps 693 mmHg 80%
    23:00 +13°C° 0.4 mm 2 mps 693 mmHg 85%

    Day after tomorrow, 17 September, Tuesday

    Time Temperature Precipitation Wind Pressure Humidity
    00:00 +12°C° 0.4 mm 2 mps 693 mmHg 90%
    01:00 +12°C° 0.4 mm 2 mps 692 mmHg 94%
    02:00 +12°C° 1 mm 1 mps 692 mmHg 95%
    03:00 +12°C° 1 mm 1 mps 692 mmHg 96%
    04:00 +12°C° 1 mm 1 mps 692 mmHg 97%
    05:00 +11°C° 0.4 mm 1 mps 692 mmHg 97%
    06:00 +11°C° 0.4 mm 1 mps 693 mmHg 96%
    07:00 +11°C° 0.4 mm 1 mps 693 mmHg 96%
    08:00 +10°C° 0.1 mm 1 mps 693 mmHg 94%
    09:00 +10°C° 0.1 mm 1 mps 693 mmHg 91%
    10:00 +10°C° 0.1 mm 1 mps 693 mmHg 89%
    11:00 +10°C° 0 mm 2 mps 693 mmHg 83%
    12:00 +12°C° 0 mm 2 mps 693 mmHg 76%
    13:00 +12°C° 0 mm 3 mps 693 mmHg 69%
    14:00 +12°C° 0 mm 3 mps 693 mmHg 67%
    15:00 +12°C° 0 mm 4 mps 692 mmHg 64%
    16:00 +12°C° 0 mm 4 mps 692 mmHg 61%
    17:00 +10°C° 0 mm 3 mps 692 mmHg 67%
    18:00 +9°C° 0 mm 2 mps 692 mmHg 73%
    19:00 +9°C° 0 mm 1 mps 692 mmHg 80%
    20:00 +7°C° 0 mm 2 mps 692 mmHg 81%
    21:00 +6°C° 0 mm 2 mps 692 mmHg 83%
    22:00 +6°C° 0 mm 2 mps 692 mmHg 84%
    23:00 +6°C° 0.1 mm 2 mps 692 mmHg 86%

    18 September, Wednesday

    Time Temperature Precipitation Wind Pressure Humidity
    00:00 +4°C° 0.1 mm 3 mps 692 mmHg 87%
    01:00 +4°C° 0.1 mm 3 mps 693 mmHg 89%
    02:00 +3°C° 0 mm 3 mps 693 mmHg 90%
    03:00 +3°C° 0 mm 2 mps 693 mmHg 92%
    04:00 +3°C° 0 mm 2 mps 693 mmHg 93%
    05:00 +3°C° 0 mm 2 mps 693 mmHg 91%
    06:00 +3°C° 0 mm 2 mps 694 mmHg 88%
    07:00 +4°C° 0 mm 2 mps 694 mmHg 86%
    08:00 +4°C° 0.1 mm 2 mps 695 mmHg 82%
    09:00 +4°C° 0.1 mm 3 mps 695 mmHg 77%
    10:00 +5°C° 0.1 mm 3 mps 696 mmHg 73%
    11:00 +7°C° 0 mm 3 mps 696 mmHg 68%
    12:00 +7°C° 0 mm 3 mps 696 mmHg 63%
    13:00 +8°C° 0 mm 3 mps 696 mmHg 58%
    14:00 +8°C° 0.1 mm 3 mps 696 mmHg 60%
    15:00 +8°C° 0.1 mm 2 mps 696 mmHg 61%
    16:00 +8°C° 0.1 mm 2 mps 696 mmHg 63%
    17:00 +7°C° 0.1 mm 2 mps 696 mmHg 71%
    18:00 +6°C° 0.1 mm 1 mps 696 mmHg 79%
    19:00 +4°C° 0.1 mm 1 mps 696 mmHg 87%
    20:00 +4°C° 0.1 mm 1 mps 696 mmHg 88%
    21:00 +4°C° 0.1 mm 1 mps 696 mmHg 89%
    22:00 +3°C° 0.1 mm 1 mps 696 mmHg 91%
    23:00 +3°C° 0 mm 1 mps 697 mmHg 91%

    19 September, Thursday

    Time Temperature Precipitation Wind Pressure Humidity
    00:00 +3°C° 0 mm 1 mps 697 mmHg 91%
    01:00 +2°C° 0 mm 0 mps 697 mmHg 92%
    02:00 +2°C° 0 mm 0 mps 697 mmHg 92%
    03:00 +2°C° 0 mm 0 mps 697 mmHg 93%
    04:00 +1°C° 0 mm 0 mps 697 mmHg 94%
    05:00 +2°C° 0 mm 0 mps 697 mmHg 92%
    06:00 +3°C° 0 mm 0 mps 698 mmHg 89%
    07:00 +4°C° 0 mm 0 mps 698 mmHg 87%
    08:00 +6°C° 0 mm 1 mps 698 mmHg 80%
    09:00 +8°C° 0 mm 1 mps 699 mmHg 73%
    10:00 +8°C° 0 mm 2 mps 700 mmHg 66%
    11:00 +9°C° 0 mm 2 mps 699 mmHg 60%
    12:00 +10°C° 0 mm 2 mps 699 mmHg 55%
    13:00 +10°C° 0 mm 2 mps 699 mmHg 49%
    14:00 +10°C° 0.1 mm 2 mps 699 mmHg 53%
    15:00 +10°C° 0.1 mm 2 mps 699 mmHg 58%
    16:00 +9°C° 0.1 mm 2 mps 698 mmHg 62%
    17:00 +8°C° 0.2 mm 2 mps 698 mmHg 71%
    18:00 +7°C° 0.2 mm 1 mps 698 mmHg 80%
    19:00 +5°C° 0.2 mm 1 mps 699 mmHg 89%
    20:00 +5°C° 0 mm 1 mps 699 mmHg 91%
    21:00 +4°C° 0 mm 1 mps 699 mmHg 92%
    22:00 +4°C° 0 mm 1 mps 699 mmHg 94%
    23:00 +3°C° 0 mm 1 mps 699 mmHg 94%

    20 September, Friday

    Time Temperature Precipitation Wind Pressure Humidity
    00:00 +3°C° 0 mm 1 mps 700 mmHg 95%
    01:00 +3°C° 0 mm 1 mps 700 mmHg 95%
    02:00 +2°C° 0 mm 1 mps 700 mmHg 96%
    03:00 +2°C° 0 mm 1 mps 700 mmHg 96%
    04:00 +2°C° 0 mm 1 mps 700 mmHg 97%
    05:00 +2°C° 0 mm 1 mps 700 mmHg 96%
    06:00 +3°C° 0 mm 1 mps 700 mmHg 95%
    07:00 +4°C° 0 mm 1 mps 701 mmHg 94%
    08:00 +5°C° 0 mm 1 mps 701 mmHg 82%
    09:00 +5°C° 0 mm 2 mps 702 mmHg 70%
    10:00 +7°C° 0 mm 2 mps 702 mmHg 58%
    11:00 +7°C° 0 mm 2 mps 702 mmHg 55%
    12:00 +8°C° 0 mm 2 mps 702 mmHg 51%
    13:00 +9°C° 0 mm 2 mps 702 mmHg 48%
    14:00 +8°C° 0 mm 2 mps 702 mmHg 50%
    15:00 +8°C° 0 mm 2 mps 702 mmHg 52%
    16:00 +8°C° 0 mm 2 mps 702 mmHg 54%
    17:00 +6°C° 0 mm 2 mps 701 mmHg 61%
    18:00 +6°C° 0 mm 1 mps 701 mmHg 68%
    19:00 +4°C° 0 mm 1 mps 701 mmHg 75%
    20:00 +4°C° 0 mm 1 mps 701 mmHg 76%
    21:00 +3°C° 0 mm 1 mps 701 mmHg 78%
    22:00 +3°C° 0 mm 1 mps 701 mmHg 79%
    23:00 +3°C° 0 mm 1 mps 701 mmHg 80%
    Show more